Home > Weather > Thunder Bay > Past weeks

Flag for Canada Weather for the Past 2 Weeks in Thunder Bay, Ontario, Canada

Now
52 °F

Broken clouds.


Feels Like: 47 °F
Forecast: 39 / 72 °F
Wind: 13 mph from Northeast

Location: Thunder Bay

Current Time: May 5, 2016 at 8:08:49 PM

Latest Report: May 5, 2016 at 7:00 PM


Visibility: 20 mi

Pressure: 29.83 "Hg

Humidity: 54%

Dew Point: 36 °F

Location of Thunder BayLocation

Historic Weather in Thunder Bay — Graph

°F

Thunder Bay Temperature Yesterday

Maximum temperature yesterday: 59 °F (at 5:00 PM)
Minimum temperature yesterday: 37 °F (at 6:00 AM)
Average temperature yesterday: 46 °F

High & Low Weather Summary for the Past Weeks

 TemperatureHumidityPressure
High64 °F (May 2, 2:00 PM)100% (Apr 29, 5:00 AM)30.35 "Hg (Apr 29, 5:00 AM)
Low21 °F (Apr 27, 5:00 AM)15% (Apr 27, 5:00 PM)29.60 "Hg (May 3, 2:00 PM)
Average42 °F60%30.10 "Hg
* Reported Apr 20 7:00 PM — May 5 7:00 PM, Thunder Bay, Weather by CustomWeather, © 2016

Note: Actual official high and low records may vary slightly from our data, if they occured in-between our weather recording intervals... More about our weather records

Advertising

Thunder Bay Weather History for the Previous 24 Hours

Scroll right to see more
 ConditionsComfort  
Time TempWeatherWind HumidityBarometerVisibility
7:00 PM
Thu, May 5
52 °FBroken clouds.13 mph54%29.83 "Hg20 mi
6:00 PM57 °FBroken clouds.15 mph51%29.81 "Hg20 mi
5:00 PM59 °FPartly sunny.12 mph48%29.82 "Hg20 mi
4:00 PM64 °FPartly sunny.12 mph37%29.83 "Hg20 mi
3:00 PM63 °FPartly sunny.12 mph39%29.85 "Hg20 mi
2:00 PM63 °FPartly sunny.8 mph37%29.88 "Hg20 mi
1:00 PM59 °FBroken clouds.8 mph42%29.92 "Hg20 mi
12:00 PM55 °FBroken clouds.8 mph47%29.93 "Hg20 mi
11:00 AM52 °FPartly sunny.7 mph50%29.96 "Hg20 mi
10:00 AM46 °FPartly sunny.3 mph62%29.98 "Hg20 mi
9:00 AM41 °FPartly sunny.No wind76%30.01 "Hg20 mi
8:00 AM34 °FPassing clouds.2 mph87%30.01 "Hg20 mi
7:00 AM28 °FPassing clouds.2 mph93%30.01 "Hg20 mi
6:00 AM27 °FPartly cloudy.3 mph100%30.00 "Hg15 mi
5:00 AM28 °FPartly cloudy.3 mph100%30.01 "Hg15 mi
4:00 AM30 °FPassing clouds.3 mph93%30.02 "Hg15 mi
3:00 AM30 °FPassing clouds.2 mph93%30.04 "Hg15 mi
2:00 AM30 °FPassing clouds.2 mph93%30.03 "Hg15 mi
1:00 AM32 °FPassing clouds.3 mph93%30.03 "Hg15 mi
12:00 AM34 °FPassing clouds.3 mph87%30.04 "Hg15 mi
11:00 PM
Wed, May 4
37 °FPassing clouds.2 mph81%30.03 "Hg15 mi
10:00 PM43 °FScattered clouds.3 mph61%30.02 "Hg15 mi
9:00 PM46 °FPassing clouds.10 mph57%30.01 "Hg20 mi
8:00 PM50 °FPassing clouds.13 mph50%29.98 "Hg20 mi
Weather by CustomWeather, © 2016

See weather overviewHow to use our weather pages